GW4707 Weather Reports


time (UTC)temp
C
wind
direction
speed
KPH
gust
KPH
rain 1hr
cm
rain 24hr
cm
rain mn
cm
humidity
%
barometer
mb
20260508085505 22 360 3.2 8.0 0.00 0.00 0.00 35 1020.5
20260508085004 22 360 3.2 6.4 0.00 0.00 0.00 35 1020.4
20260508084513 22 360 0.0 3.2 0.00 0.00 0.00 38 1020.3
20260508084006 22 360 0.0 6.4 0.00 0.00 0.00 40 1020.4
20260508083505 22 360 1.6 6.4 0.00 0.00 0.00 38 1020.4
20260508083019 22 360 0.0 8.0 0.00 0.00 0.00 39 1020.4
20260508082511 22 360 1.6 8.0 0.00 0.00 0.00 40 1020.5
20260508082008 22 360 0.0 3.2 0.00 0.00 0.00 43 1020.5
20260508081504 22 360 0.0 3.2 0.00 0.00 0.00 45 1020.5
20260508081003 22 89 0.0 4.8 0.00 0.00 0.00 45 1020.4
20260508080503 22 80 0.0 6.4 0.00 0.00 0.00 46 1020.4
20260508080011 22 360 1.6 8.0 0.00 0.00 0.00 46 1020.3
20260508075505 22 360 3.2 8.0 0.00 0.00 0.00 47 1020.3
20260508075004 22 61 0.0 6.4 0.00 0.00 0.00 48 1020.3
20260508074510 22 360 1.6 6.4 0.00 0.00 0.00 47 1020.3
20260508074005 22 55 0.0 6.4 0.00 0.00 0.00 46 1020.2
20260508073505 22 67 0.0 8.0 0.00 0.00 0.00 45 1020.1
20260508073020 22 218 1.6 12.9 0.00 0.00 0.00 45 1020.0
20260508072507 22 360 1.6 12.9 0.00 0.00 0.00 47 1020.0
20260508072009 21 360 1.6 4.8 0.00 0.00 0.00 51 1019.9
20260508071520 21 360 1.6 4.8 0.00 0.00 0.00 56 1019.9
20260508071010 21 360 1.6 4.8 0.00 0.00 0.00 58 1020.0
20260508070511 20 360 1.6 4.8 0.00 0.00 0.00 59 1019.8
20260508070006 20 360 0.0 4.8 0.00 0.00 0.00 61 1019.8
20260508065504 20 316 1.6 4.8 0.00 0.00 0.00 62 1019.7
20260508065006 20 348 1.6 4.8 0.00 0.00 0.00 61 1019.7
20260508064510 20 352 3.2 6.4 0.00 0.00 0.00 62 1019.7
20260508064007 20 344 1.6 8.0 0.00 0.00 0.00 63 1019.8
20260508063505 20 355 3.2 8.0 0.00 0.00 0.00 62 1019.7
20260508063013 20 28 3.2 6.4 0.00 0.00 0.00 63 1019.7
20260508062505 20 330 0.0 4.8 0.00 0.00 0.00 63 1019.8
20260508062006 19 360 0.0 4.8 0.00 0.00 0.00 64 1019.9
20260508061517 19 360 0.0 4.8 0.00 0.00 0.00 65 1019.8
20260508061007 19 41 0.0 4.8 0.00 0.00 0.00 65 1019.7
20260508060509 19 43 1.6 4.8 0.00 0.00 0.00 65 1019.6
20260508060026 18 44 1.6 4.8 0.00 0.00 0.00 66 1019.5
20260508055506 18 42 1.6 4.8 0.00 0.00 0.00 67 1019.5
20260508055009 18 40 0.0 4.8 0.00 0.00 0.00 66 1019.5
20260508054517 18 47 1.6 4.8 0.00 0.00 0.00 67 1019.5
20260508054003 18 78 0.0 3.2 0.00 0.00 0.00 68 1019.5
20260508053504 18 83 0.0 3.2 0.00 0.00 0.00 68 1019.6
20260508053011 18 360 0.0 1.6 0.00 0.00 0.00 69 1019.6
20260508052506 18 360 0.0 1.6 0.00 0.00 0.00 70 1019.6
20260508052009 18 51 0.0 3.2 0.00 0.00 0.00 69 1019.6
20260508051515 18 54 0.0 3.2 0.00 0.00 0.00 69 1019.6
20260508051007 18 52 0.0 3.2 0.00 0.00 0.00 70 1019.7
20260508050508 18 52 1.6 3.2 0.00 0.00 0.00 70 1019.7
20260508050017 17 264 0.0 3.2 0.00 0.00 0.00 70 1019.8
20260508045509 17 360 0.0 3.2 0.00 0.00 0.00 68 1019.7
20260508045012 17 360 0.0 3.2 0.00 0.00 0.00 68 1019.6
20260508044525 17 263 0.0 1.6 0.00 0.00 0.00 68 1019.5
20260508044010 17 360 0.0 3.2 0.00 0.00 0.00 67 1019.5
20260508043507 16 360 0.0 3.2 0.00 0.00 0.00 66 1019.4
20260508043008 16 263 0.0 4.8 0.00 0.00 0.00 66 1019.4
20260508042508 16 360 1.6 4.8 0.00 0.00 0.00 66 1019.6
20260508042004 16 360 1.6 4.8 0.00 0.00 0.00 67 1019.5
20260508041514 16 360 0.0 3.2 0.00 0.00 0.00 66 1019.4
20260508041004 16 360 0.0 3.2 0.00 0.00 0.00 67 1019.3
20260508040504 16 240 0.0 4.8 0.00 0.00 0.00 66 1019.4
20260508040018 16 360 0.0 4.8 0.00 0.00 0.00 66 1019.4
20260508035507 15 240 1.6 4.8 0.00 0.00 0.00 66 1019.4
20260508035008 15 238 0.0 3.2 0.00 0.00 0.00 66 1019.3
20260508034530 15 360 0.0 4.8 0.00 0.00 0.00 65 1019.3
20260508034013 15 360 0.0 6.4 0.00 0.00 0.00 65 1019.3
20260508033508 15 360 1.6 6.4 0.00 0.00 0.00 65 1019.2
20260508033032 15 360 3.2 6.4 0.00 0.00 0.00 65 1019.2
20260508032508 16 360 1.6 4.8 0.00 0.00 0.00 65 1019.2
20260508032004 15 242 1.6 4.8 0.00 0.00 0.00 65 1019.3
20260508031512 16 360 1.6 4.8 0.00 0.00 0.00 64 1019.3
20260508031004 16 360 1.6 4.8 0.00 0.00 0.00 64 1019.4
20260508030506 16 360 0.0 3.2 0.00 0.00 0.00 64 1019.3
20260508030014 16 360 0.0 3.2 0.00 0.00 0.00 64 1019.3
20260508025505 16 360 1.6 3.2 0.00 0.00 0.00 63 1019.2
20260508025006 15 360 0.0 3.2 0.00 0.00 0.00 63 1019.3
20260508024525 15 242 0.0 3.2 0.00 0.00 0.00 63 1019.3
20260508024006 15 242 0.0 6.4 0.00 0.00 0.00 63 1019.3
20260508023510 15 244 3.2 6.4 0.00 0.00 0.00 63 1019.4
20260508023025 15 242 0.0 4.8 0.00 0.00 0.00 62 1019.4
20260508022508 15 235 1.6 6.4 0.00 0.00 0.00 62 1019.4
20260508022013 15 243 1.6 6.4 0.00 0.00 0.00 61 1019.5
20260508021526 15 242 1.6 4.8 0.00 0.00 0.00 61 1019.5
20260508021004 15 257 1.6 4.8 0.00 0.00 0.00 61 1019.4
20260508020503 15 236 0.0 6.4 0.00 0.00 0.00 60 1019.3
20260508020012 15 235 3.2 8.0 0.00 0.00 0.00 60 1019.3
20260508015504 15 360 3.2 8.0 0.00 0.00 0.00 59 1019.3
20260508015006 15 231 3.2 8.0 0.00 0.00 0.00 59 1019.5
20260508014516 16 360 3.2 6.4 0.00 0.00 0.00 58 1019.5
20260508014007 16 360 1.6 4.8 0.00 0.00 0.00 58 1019.5
20260508013509 16 360 1.6 6.4 0.00 0.00 0.00 58 1019.4
20260508013024 16 360 1.6 6.4 0.00 0.00 0.00 58 1019.4
20260508012513 16 360 1.6 6.4 0.00 0.00 0.00 58 1019.4
20260508012008 16 360 0.0 4.8 0.00 0.00 0.00 57 1019.4
20260508011507 16 360 1.6 6.4 0.00 0.00 0.00 57 1019.4
20260508011004 16 360 1.6 6.4 0.00 0.00 0.00 57 1019.4
20260508010504 16 360 1.6 8.0 0.00 0.00 0.00 57 1019.4
20260508010021 16 360 0.0 8.0 0.00 0.00 0.00 57 1019.3
20260508005504 17 360 1.6 6.4 0.00 0.00 0.00 56 1019.3
20260508005004 17 360 1.6 4.8 0.00 0.00 0.00 55 1019.3
20260508004523 17 360 1.6 4.8 0.00 0.00 0.00 56 1019.4
20260508004008 17 360 0.0 3.2 0.00 0.00 0.00 55 1019.3
20260508003505 17 360 0.0 6.4 0.00 0.00 0.00 55 1019.4
20260508003021 17 360 1.6 6.4 0.00 0.00 0.00 55 1019.4
20260508002510 17 229 0.0 6.4 0.00 0.00 0.00 55 1019.4
20260508002008 17 360 0.0 6.4 0.00 0.00 0.00 55 1019.4
20260508001526 17 360 3.2 6.4 0.00 0.00 0.00 55 1019.4
20260508001009 17 360 1.6 6.4 0.00 0.00 0.00 56 1019.5
20260508000510 17 360 4.8 6.4 0.00 0.00 0.00 57 1019.6
20260508000007 17 360 1.6 8.0 0.00 0.00 0.00 57 1019.6
20260507235505 17 360 4.8 8.0 0.00 0.00 0.00 57 1019.6
20260507235008 17 360 3.2 9.7 0.00 0.00 0.00 57 1019.6
20260507234511 17 360 3.2 9.7 0.00 0.00 0.00 58 1019.6
20260507234005 17 360 4.8 8.0 0.00 0.00 0.00 58 1019.6
20260507233506 17 360 4.8 8.0 0.00 0.00 0.00 58 1019.7
20260507233016 17 360 3.2 8.0 0.00 0.00 0.00 58 1019.7
20260507232512 17 360 3.2 9.7 0.00 0.00 0.00 58 1019.8
20260507232007 16 360 3.2 9.7 0.00 0.00 0.00 58 1019.6
20260507231519 16 360 4.8 9.7 0.00 0.00 0.00 57 1019.6
20260507231007 17 360 3.2 8.0 0.00 0.00 0.00 57 1019.6
20260507230507 17 360 3.2 8.0 0.00 0.00 0.00 57 1019.7
20260507230035 17 360 3.2 8.0 0.00 0.00 0.00 57 1019.7
20260507225509 17 360 1.6 8.0 0.00 0.00 0.00 56 1019.7
20260507225010 17 360 3.2 9.7 0.00 0.00 0.00 56 1019.7
20260507224515 17 360 4.8 9.7 0.00 0.00 0.00 56 1019.6
20260507224005 17 360 3.2 8.0 0.00 0.00 0.00 56 1019.7
20260507223508 17 360 1.6 6.4 0.00 0.00 0.00 56 1019.8
20260507223017 17 360 1.6 6.4 0.00 0.00 0.00 56 1019.8
20260507222504 17 360 3.2 6.4 0.00 0.00 0.00 56 1019.9
20260507222013 17 360 1.6 4.8 0.00 0.00 0.00 56 1019.9
20260507221520 17 360 1.6 4.8 0.00 0.00 0.00 55 1019.9
20260507221010 17 360 1.6 8.0 0.00 0.00 0.00 55 1019.9
20260507220510 17 360 3.2 8.0 0.00 0.00 0.00 55 1019.9
20260507220024 17 360 3.2 8.0 0.00 0.00 0.00 55 1019.9
20260507215514 17 360 1.6 6.4 0.00 0.00 0.00 55 1019.9
20260507215010 17 360 1.6 4.8 0.00 0.00 0.00 55 1019.9
20260507214525 17 360 0.0 8.0 0.00 0.00 0.00 54 1020.0
20260507214012 17 360 3.2 8.0 0.00 0.00 0.00 54 1020.1
20260507213514 17 360 3.2 8.0 0.00 0.00 0.00 54 1020.1
20260507213013 18 360 4.8 9.7 0.00 0.00 0.00 53 1020.1
20260507212510 18 360 4.8 9.7 0.00 0.00 0.00 53 1020.1
20260507212012 18 360 4.8 8.0 0.00 0.00 0.00 53 1020.1
20260507211531 18 360 1.6 4.8 0.00 0.00 0.00 53 1020.0
20260507211007 18 360 0.0 6.4 0.00 0.00 0.00 52 1019.9
20260507210507 18 360 1.6 6.4 0.00 0.00 0.00 52 1019.9
20260507210033 18 360 1.6 6.4 0.00 0.00 0.00 52 1020.0
20260507205511 18 360 1.6 6.4 0.00 0.00 0.00 52 1019.9
20260507205008 18 360 3.2 6.4 0.00 0.00 0.00 52 1020.0
20260507204525 18 360 1.6 6.4 0.00 0.00 0.00 52 1020.0
20260507204009 18 360 3.2 8.0 0.00 0.00 0.00 51 1020.0
20260507203509 18 360 3.2 8.0 0.00 0.00 0.00 50 1019.9
20260507203033 18 360 3.2 8.0 0.00 0.00 0.00 50 1019.9
20260507202508 18 360 4.8 8.0 0.00 0.00 0.00 49 1020.0
20260507202005 19 360 4.8 8.0 0.00 0.00 0.00 48 1019.9
20260507201515 19 360 3.2 6.4 0.00 0.00 0.00 48 1020.0
20260507201007 20 360 3.2 6.4 0.00 0.00 0.00 47 1020.0
20260507200506 20 360 3.2 6.4 0.00 0.00 0.00 46 1019.9
20260507200018 20 360 1.6 4.8 0.00 0.00 0.00 45 1019.9
20260507195508 20 360 0.0 6.4 0.00 0.00 0.00 44 1020.0
20260507195008 20 360 0.0 6.4 0.00 0.00 0.00 44 1020.0
20260507194529 21 360 3.2 8.0 0.00 0.00 0.00 43 1020.0
20260507194007 21 360 4.8 9.7 0.00 0.00 0.00 42 1020.1
20260507193508 21 360 3.2 9.7 0.00 0.00 0.00 42 1020.1
20260507193032 21 360 3.2 8.0 0.00 0.00 0.00 42 1020.1
20260507192509 21 360 1.6 8.0 0.00 0.00 0.00 41 1020.0
20260507192010 21 360 4.8 12.9 0.00 0.00 0.00 41 1020.0
20260507191527 21 360 6.4 12.9 0.00 0.00 0.00 40 1020.0
20260507191009 21 360 6.4 14.5 0.00 0.00 0.00 39 1020.0
20260507190508 21 360 8.0 14.5 0.00 0.00 0.00 38 1020.0
20260507190018 21 360 6.4 14.5 0.00 0.00 0.00 38 1019.8
20260507185506 21 360 6.4 12.9 0.00 0.00 0.00 38 1019.7
20260507185008 21 360 4.8 12.9 0.00 0.00 0.00 38 1019.7
20260507184524 21 360 4.8 9.7 0.00 0.00 0.00 38 1019.8
20260507184009 21 360 0.0 4.8 0.00 0.00 0.00 39 1019.7
20260507183512 21 360 1.6 4.8 0.00 0.00 0.00 39 1019.7
20260507183040 21 360 0.0 1.6 0.00 0.00 0.00 37 1019.6
20260507182509 21 360 0.0 4.8 0.00 0.00 0.00 38 1019.6
20260507182010 21 360 0.0 6.4 0.00 0.00 0.00 38 1019.6
20260507181530 21 360 0.0 6.4 0.00 0.00 0.00 38 1019.5
20260507181013 21 360 1.6 6.4 0.00 0.00 0.00 37 1019.4
20260507180510 21 360 1.6 6.4 0.00 0.00 0.00 37 1019.4
20260507180033 22 360 1.6 4.8 0.00 0.00 0.00 42 1019.3
20260507175516 22 360 1.6 4.8 0.00 0.00 0.00 44 1019.1
20260507175006 22 360 0.0 4.8 0.00 0.00 0.00 40 1019.0
20260507174522 22 360 0.0 3.2 0.00 0.00 0.00 37 1019.0
20260507174008 22 360 0.0 3.2 0.00 0.00 0.00 34 1018.9
20260507173507 22 360 0.0 3.2 0.00 0.00 0.00 33 1019.0
20260507173024 22 360 0.0 4.8 0.00 0.00 0.00 33 1019.0
20260507172510 22 360 0.0 4.8 0.00 0.00 0.00 32 1018.9
20260507172010 22 360 1.6 6.4 0.00 0.00 0.00 32 1018.9
20260507171528 22 360 1.6 8.0 0.00 0.00 0.00 32 1019.0
20260507171007 22 360 3.2 8.0 0.00 0.00 0.00 31 1019.0
20260507170504 22 360 3.2 9.7 0.00 0.00 0.00 31 1019.0
20260507170017 23 360 4.8 9.7 0.00 0.00 0.00 30 1019.1
20260507165504 23 360 3.2 14.5 0.00 0.00 0.00 30 1019.1
20260507165010 23 360 4.8 14.5 0.00 0.00 0.00 29 1019.1
20260507164520 23 360 6.4 14.5 0.00 0.00 0.00 29 1019.1
20260507164007 23 360 4.8 14.5 0.00 0.00 0.00 29 1019.1
20260507163506 23 360 8.0 19.3 0.00 0.00 0.00 29 1019.1
20260507163021 23 360 8.0 19.3 0.00 0.00 0.00 29 1019.1
20260507162506 23 360 11.3 16.1 0.00 0.00 0.00 29 1019.1
20260507162010 23 360 8.0 17.7 0.00 0.00 0.00 29 1019.1
20260507161531 23 360 8.0 17.7 0.00 0.00 0.00 28 1019.0
20260507161006 23 360 6.4 17.7 0.00 0.00 0.00 29 1018.9
20260507160506 23 360 9.7 17.7 0.00 0.00 0.00 29 1018.9
20260507160037 23 360 9.7 17.7 0.00 0.00 0.00 29 1018.9
20260507155508 23 360 9.7 17.7 0.00 0.00 0.00 29 1019.0
20260507155004 23 360 4.8 17.7 0.00 0.00 0.00 31 1019.0
20260507154516 24 360 4.8 17.7 0.00 0.00 0.00 31 1018.9
20260507154010 24 360 4.8 14.5 0.00 0.00 0.00 31 1018.9
20260507153507 24 360 6.4 14.5 0.00 0.00 0.00 31 1019.0
20260507153022 24 360 4.8 14.5 0.00 0.00 0.00 30 1018.9
20260507152508 24 360 6.4 17.7 0.00 0.00 0.00 30 1019.0
20260507152007 25 360 6.4 17.7 0.00 0.00 0.00 29 1019.1
20260507151524 25 360 4.8 16.1 0.00 0.00 0.00 29 1019.1
20260507151008 25 360 4.8 17.7 0.00 0.00 0.00 29 1019.1
20260507150507 25 190 8.0 17.7 0.00 0.00 0.00 29 1019.2
20260507150027 25 213 9.7 19.3 0.00 0.00 0.00 29 1019.2
20260507145510 25 217 8.0 20.9 0.00 0.00 0.00 29 1019.2
20260507145007 25 148 11.3 20.9 0.00 0.00 0.00 29 1019.3
20260507144529 25 182 9.7 20.9 0.00 0.00 0.00 30 1019.3
20260507144012 25 207 6.4 17.7 0.00 0.00 0.00 31 1019.4
20260507143508 25 184 6.4 19.3 0.00 0.00 0.00 31 1019.3
20260507143020 25 193 9.7 19.3 0.00 0.00 0.00 31 1019.3
20260507142506 25 131 9.7 19.3 0.00 0.00 0.00 32 1019.3
20260507142007 25 179 6.4 19.3 0.00 0.00 0.00 33 1019.3
20260507141524 24 360 9.7 19.3 0.00 0.00 0.00 34 1019.3
20260507141004 24 164 8.0 22.5 0.00 0.00 0.00 34 1019.3
20260507140504 24 182 9.7 22.5 0.00 0.00 0.00 35 1019.3
20260507140009 24 211 6.4 22.5 0.00 0.00 0.00 36 1019.3
20260507135503 24 194 9.7 22.5 0.00 0.00 0.00 36 1019.3
20260507135004 24 360 9.7 25.7 0.00 0.00 0.00 35 1019.3
20260507134510 24 360 11.3 25.7 0.00 0.00 0.00 35 1019.4
20260507134005 24 360 9.7 22.5 0.00 0.00 0.00 35 1019.5
20260507133506 24 360 11.3 24.1 0.00 0.00 0.00 36 1019.5
20260507133017 25 360 16.1 24.1 0.00 0.00 0.00 35 1019.5
20260507132504 25 360 9.7 20.9 0.00 0.00 0.00 37 1019.5
20260507132006 25 360 9.7 20.9 0.00 0.00 0.00 37 1019.5
20260507131520 25 186 4.8 17.7 0.00 0.00 0.00 36 1019.5
20260507131009 25 360 8.0 17.7 0.00 0.00 0.00 36 1019.5
20260507130504 25 202 6.4 17.7 0.00 0.00 0.00 35 1019.5
20260507130021 26 180 6.4 17.7 0.00 0.00 0.00 34 1019.4
20260507125504 26 178 4.8 22.5 0.00 0.00 0.00 33 1019.4
20260507125004 26 215 12.9 22.5 0.00 0.00 0.00 32 1019.4
20260507124513 26 188 9.7 22.5 0.00 0.00 0.00 32 1019.4
20260507124004 27 220 11.3 22.5 0.00 0.00 0.00 31 1019.4
20260507123505 27 202 3.2 19.3 0.00 0.00 0.00 31 1019.5
20260507123017 26 154 6.4 16.1 0.00 0.00 0.00 31 1019.4
20260507122505 26 161 6.4 14.5 0.00 0.00 0.00 30 1019.4
20260507122009 26 200 4.8 16.1 0.00 0.00 0.00 32 1019.4
20260507121522 25 216 1.6 16.1 0.00 0.00 0.00 33 1019.4
20260507121008 24 161 4.8 11.3 0.00 0.00 0.00 37 1019.5
20260507120510 23 227 1.6 11.3 0.00 0.00 0.00 42 1019.5
20260507120022 23 70 6.4 12.9 0.00 0.00 0.00 41 1019.6
20260507115510 24 80 6.4 14.5 0.00 0.00 0.00 39 1019.6
20260507115004 25 84 6.4 14.5 0.00 0.00 0.00 39 1019.6
20260507114510 25 123 3.2 11.3 0.00 0.00 0.00 38 1019.6
20260507114004 25 86 4.8 12.9 0.00 0.00 0.00 37 1019.6
20260507113503 26 79 8.0 16.1 0.00 0.00 0.00 35 1019.6
20260507113017 26 67 3.2 16.1 0.00 0.00 0.00 32 1019.7
20260507112504 27 87 3.2 11.3 0.00 0.00 0.00 31 1019.7
20260507112007 27 205 1.6 9.7 0.00 0.00 0.00 30 1019.7
20260507111518 27 55 1.6 9.7 0.00 0.00 0.00 31 1019.6
20260507111006 27 113 3.2 8.0 0.00 0.00 0.00 32 1019.6
20260507110507 26 233 1.6 11.3 0.00 0.00 0.00 33 1019.6
20260507110030 26 134 1.6 12.9 0.00 0.00 0.00 34 1019.7
20260507105507 25 188 6.4 16.1 0.00 0.00 0.00 34 1019.8
20260507105007 24 169 4.8 16.1 0.00 0.00 0.00 35 1019.9
20260507104525 23 160 6.4 16.1 0.00 0.00 0.00 38 1020.0
20260507104014 22 76 0.0 11.3 0.00 0.00 0.00 47 1020.0
20260507103506 22 89 3.2 14.5 0.00 0.00 0.00 48 1020.0
20260507103012 22 66 1.6 14.5 0.00 0.00 0.00 48 1020.0
20260507102503 22 57 6.4 12.9 0.00 0.00 0.00 48 1020.0
20260507102004 22 122 3.2 14.5 0.00 0.00 0.00 50 1019.9
20260507101517 22 66 1.6 14.5 0.00 0.00 0.00 52 1020.0
20260507101004 22 113 1.6 12.9 0.00 0.00 0.00 53 1020.0
20260507100508 21 123 3.2 16.1 0.00 0.00 0.00 52 1020.0
20260507100025 21 113 4.8 16.1 0.00 0.00 0.00 52 1020.0
20260507095507 21 360 1.6 14.5 0.00 0.00 0.00 50 1020.0
20260507095007 22 80 3.2 14.5 0.00 0.00 0.00 49 1020.0
20260507094526 22 360 4.8 14.5 0.00 0.00 0.00 47 1019.9
20260507094007 22 82 4.8 12.9 0.00 0.00 0.00 45 1020.0
20260507093511 22 109 4.8 12.9 0.00 0.00 0.00 45 1020.0
20260507093036 22 159 1.6 9.7 0.00 0.00 0.00 46 1020.1
20260507092509 22 74 1.6 9.7 0.00 0.00 0.00 47 1020.1
20260507092003 22 123 1.6 8.0 0.00 0.00 0.00 48 1020.1
20260507091518 22 360 3.2 12.9 0.00 0.00 0.00 49 1020.0
20260507091006 22 360 4.8 12.9 0.00 0.00 0.00 49 1020.0
20260507090507 21 360 3.2 14.5 0.00 0.00 0.00 48 1020.2
20260507090019 21 360 4.8 14.5 0.00 0.00 0.00 49 1020.2